sat.trackr.live / text

‹ back to catalog

HULIANWANG DIGUI-61

NORAD 65167 · 2025-174D

PAYLOAD ACTIVE UNKNOWN

§ Identity

Operator
Country
PRC
Launch date
2025-08-13
Launch site
WSC
Launch vehicle
Mass (kg)
RCS (m²)

External: N2YO · Heavens-Above · Gunter

§ Orbital elements

Epoch: 2026-09-21T21:58:46.832448Z

Period
108.73 min
Inclination
86.4994°
Eccentricity
0.0002357
Mean motion
13.24400154 rev/d
Perigee alt
1,166.2 km
Apogee alt
1,169.7 km
Semi-major
7,546.1 km
B*
7.9979e-5
RAAN
219.3776°
Arg perigee
77.2445°
Mean anomaly
282.8952°
Rev number
5,359

§ Raw data

HULIANWANG DIGUI-611 65167U 25174D   26264.91581982  .00000049  00000+0  79979-4 0  99942 65167  86.4994 219.3776 0002357  77.2445 282.8952 13.24400154 53590

JSON: /api/v1/satellites/65167 · /tle

For live sub-satellite position, see the globe view (requires WebGL).

§ Visibility from observer

Set your observer location to see the next 7 days of passes ≥ 10°. The values pass through the URL so the page stays shareable.

No JS? Fill the form by hand. The geolocation button needs JavaScript.